Regional Weather Roundup
Issued by NWS Newport/Morehead, NC

Current Version | Previous Version | Text Only | Print | Product List | Glossary Off
Versions: 1 2 3 4 5 6 7 8 9 10 11 12 13 14 15 16 17 18 19 20 21 22 23 24 25 26 27 28 29 30 31 32 33 34 35 36 37 38 39 40 41 42 43 44 45 46 47 48 49 50
671 ASUS42 KMHX 171425 RWRMHX WEATHER ROUNDUP FOR EASTERN NORTH CAROLINA NATIONAL WEATHER SERVICE NEWPORT/MOREHEAD CITY NC 1000 AM EDT TUE OCT 17 2017 NOTE: "FAIR" INDICATES FEW OR NO CLOUDS BELOW 12,000 FEET WITH NO SIGNIFICANT WEATHER AND/OR OBSTRUCTIONS TO VISIBILITY NCZ015>017-031-032-045>047-102-103-171500- NORTH COAST CITY SKY/WX TMP DP RH WIND PRES REMARKS EDENTON SUNNY 57 46 66 CALM 30.33R ELIZABETH CITY SUNNY 58 47 66 N21 30.31R KITTY HAWK MOSUNNY 59 44 57 N12G20 30.27R MANTEO PTSUNNY N/A N/A N/A NE14G22 30.29R $$ NCZ045>047-081-094-103-104-171500- CENTRAL COAST CITY SKY/WX TMP DP RH WIND PRES REMARKS FRISCO MOSUNNY 63 47 55 NE16G29 30.25R $$ NCZ095-097-098-100-101-171500- SOUTHERN COAST CITY SKY/WX TMP DP RH WIND PRES REMARKS BEAUFORT MOSUNNY 60 50 69 N14G21 30.26R CEDAR ISLAND NOT AVBL JACKSONVILLE N/A 54 46 74 MISG 30.29R PINEY ISLAND N/A N/A N/A N/A N16G24 30.26R WILMINGTON CLOUDY 58 43 57 N12 30.29R $$ NCZ011>013-027>030-043-044-078>080-089-090>093-098-171500- COASTAL PLAIN CITY SKY/WX TMP DP RH WIND PRES REMARKS AHOSKIE SUNNY 53 44 71 N10G16 30.34S CLINTON PTSUNNY 54 43 67 NE7 30.34R ELIZABETHTOWN NOT AVBL GOLDSBORO CLOUDY 53 42 67 NE9 30.32R GREENVILLE CLOUDY 52 45 76 N9 30.34R HAVELOCK CLOUDY 58 49 72 N14 30.28S KENANSVILLE MOSUNNY 57 45 62 N12 30.33R KINSTON PTSUNNY 54 45 71 N12 30.34R NEW BERN SUNNY 55 46 71 N12 30.31R RICHLANDS CLOUDY 53 44 71 N8 30.31R ROCKY MOUNT SUNNY 54 44 69 N13 30.35R WASHINGTON CLOUDY 55 45 67 N12G17 30.32R WHITEVILLE MOSUNNY 52 42 71 NE3 30.31S $$ AMZ130-135-150-152-154-156-158-170-250-252-270-ANZ085-086-088-633-658-670-171500- MARINE OBSERVATIONS STATION/POSITION TIME TEMP WIND PRES WAVE SWELL AIR SEA DIR/SP/G HT/PER HT/PER (UTC) (F) (DEG/KT/KT) (MB) (FT/S) (FT/S) CHESAPEAKE LIGHT NOT AVBL 64 E VA BEACH 1350 59 67 360/ 19/ 25 1024.8 9/ 8 DUCK 1400 59 69 10/ 19/ 26 1025.0 2 E DUCK 1400 71 N/A 7/ 6 2/11 OREGON INLET 1400 60 68 20/ 15/ 22 1024.9 13E OREGON INLT 1348 72 N/A 9/ 7 7/ 7 HATTERAS CG 1400 62 69 30/ 20/ 27 1024.3 DIAMOND BUOY 1350 65 81 20/ 25/ 29 1022.8 9/ 8 5/17 CAPE LOOKOUT 1400 62 10/ 18/ 22 1024.0 BEAUFORT LAB 1400 59 73 10/ 12/ 16 1024.9 30 SE NEW RVR IN 1408 63 30/ 21/ 29 1023.7 30 SE NEW RVR IN NOT AVBL 27 SE WRIGHTSVLE 1408 63 77 50/ 21/ 31 1023.5 5 SE WRIGHTSVLE 1408 60 75 40/ 17/ 33 1025.0 225 S CAPE HAT 1350 75 79 40/ 25/ 31 1017.2 14/ 9 41 SE CHARLESTON 1410 68 80 30/ 25/ 31 1022.0 $$

USA.gov is the U.S. government's official web portal to all federal, state and local government web resources and services.